Location: ??
(35.5653°N, 139.6194°E)
Time: 03:39:16
(UTC+00:00)

SL-08 R/B - Pass Details

Date: 20 November 2019
Orbit: 944 x 1008 km, 82.9° (Epoch: 11 December)

Event Time Altitude Azimuth Distance (km) Brightness Sun altitude
Rises 19:56:09 0° 192° (SSW) 3,623 7.5 -17.5°
Reaches altitude 10° 19:58:40 10° 195° (SSW) 2,673 6.8 -17.0°
Maximum altitude 20:04:43 67° 277° (W) 1,022 4.4 -15.8°
Drops below altitude 10° 20:10:46 10° 0° (N) 2,668 6.7 -14.6°
Sets 20:13:17 0° 4° (N) 3,616 7.4 -14.1°
